Location: Epalinges
(46.5518°N, 6.6683°E)
Time: 02:50:55
(UTC+00:00)

USA 229 DEB - Pass Details

Date: 20 June 2021
Orbit: 955 x 1257 km, 63.4° (Epoch: 25 July)

Event Time Altitude Azimuth Distance (km) Brightness Sun altitude
Exits shadow 00:22:26 29° 217° (SW) 1,747 4.3 -19.2°
Maximum altitude 00:26:02 90° 132° (SE) 1,026 3.5 -19.1°
Drops below altitude 10° 00:32:55 10° 40° (NE) 2,919 7.0 -18.8°
Sets 00:35:40 0° 40° (NE) 3,924 7.8 -18.7°
